[[{"header":{"parameterUnit":"m.s-1","parameterCategory":1,"la1":30.2992,"la2":30.254,"lo1":-89.0895,"lo2":-89.0443,"dy":0.0025,"dx":0.0025,"nx":19,"ny":19,"refTime":"2026-04-08T21:00:00:Z","depth":0,"parameterNumber":2,"parameterNumberName":"U-component_of_WINDS"},"data":[0,0,0,-4.3701,-4.3703,-4.3758,-4.3758,-4.3865,-4.3866,0,0,0,0,0,0,0,0,0,0,0,-4.3705,-4.3706,-4.3701,-4.3703,-4.3758,-4.3758,-4.3865,-4.3866,0,0,0,0,0,0,0,0,0,0,0,-4.3704,-4.3706,-4.3707,-4.3703,-4.3758,-4.3758,-4.3864,-4.381,0,0,0,0,0,0,0,0,0,0,-4.3751,-4.3772,-4.3705,-4.3707,-4.3704,-4.3758,-4.3758,-4.3807,-4.3814,-4.3855,0,-4.3895,0,-4.3883,-4.3875,-4.3876,0,0,0,-4.3688,-4.3767,-4.3764,-4.3708,-4.3705,-4.3758,-4.3729,-4.381,-4.3818,-4.3864,-4.3896,-4.3899,-4.3884,-4.3876,-4.3877,-4.4161,-4.4163,0,0,-4.3685,-4.3725,-4.3759,-4.377,-4.3762,-4.3728,-4.3731,-4.3814,-4.3853,-4.3896,-4.3901,-4.3886,-4.3877,-4.3878,-4.4159,-4.4161,0,0,0,-4.3686,-4.3724,-4.3718,-4.3767,-4.3774,-4.373,-4.3734,-4.3849,-4.3844,-4.3902,-4.3887,-4.3878,-4.388,-4.4157,-4.416,-4.4298,0,0,0,-4.3684,-4.3724,-4.3718,-4.3743,-4.3773,-4.3812,-4.3767,-4.3838,-4.3846,-4.3887,-4.3878,-4.3881,-4.4154,-4.4158,-4.4289,-4.4356,0,0,0,-4.3694,-4.3725,-4.374,-4.3745,-4.377,-4.3809,-4.3808,-4.3839,-4.3838,-4.3876,-4.3882,-4.4153,-4.4158,-4.4281,-4.4343,-4.4443,0,0,0,-4.3717,-4.3861,-4.3743,-4.3899,-4.377,-4.3895,-4.3807,-4.3898,-4.3947,-4.3879,-4.4155,-4.416,-4.4279,-4.4335,-4.4435,-4.4534,-4.4579,0,0,-4.3921,-4.3887,-4.3976,-4.3872,-4.4028,-4.3883,-4.406,-4.4067,-4.4034,-4.4121,-4.4127,-4.4292,-4.4342,-4.4442,-4.4818,-4.4854,0,0,0,-4.4054,-4.4119,-4.4151,-4.42,-4.4209,-4.4224,-4.42,-4.4203,-4.4275,-4.4087,-4.4354,-4.4383,-4.4439,-4.4485,-4.4515,-4.4562,-4.4182,-4.4182,-4.4181,-4.4399,-4.4351,-4.4495,-4.4455,-4.4504,-4.4479,-4.4515,-4.4516,-4.4451,-4.4516,-4.4541,-4.4775,-4.483,-4.4852,-4.4902,-4.459,-4.459,-4.4591,-4.4591,-4.4694,-4.4777,-4.4692,-4.4801,-4.475,-4.4842,-4.4826,-4.4779,-4.4858,-4.4751,-4.4799,-4.4686,-4.4893,-4.4934,-4.4601,-4.4599,-4.4598,-4.4597,-4.4596,-4.4913,-4.4945,-4.4947,-4.5015,-4.5074,-4.5029,-4.511,-4.5061,-4.5015,-4.5062,-4.5084,-4.5082,-4.5073,-4.5077,-4.5077,-4.5078,-4.5079,-4.5079,-4.508,-4.5139,-4.5138,-4.5211,-4.5237,-4.5264,-4.5293,-4.5274,-4.5299,-4.5315,-4.5273,-4.5273,-4.5204,-4.4923,-4.4853,-4.5092,-4.509,-4.5089,-4.5087,-4.5087,-4.5454,-4.5376,-4.549,-4.5517,-4.5545,-4.5608,-4.5545,-4.5603,-4.5617,-4.5659,-4.5582,-4.5382,-4.5343,-4.5319,-4.526,-4.5591,-4.5591,-4.5591,-4.5591,-4.5639,-4.5616,-4.5722,-4.5769,-4.581,-4.5767,-4.59,-4.5889,-4.5864,-4.5871,-4.5817,-4.5736,-4.5713,-4.5688,-4.5655,-4.56,-4.601,-4.601,-4.601,-4.583,-4.5809,-4.593,-4.5905,-4.5925,-4.5943,-4.6068,-4.6128,-4.6084,-4.6026,-4.5876,-4.5858,-4.5727,-4.5687,-4.5623,-4.5573,-4.5471,0,0]},{"header":{"parameterUnit":"m.s-1","parameterCategory":1,"la1":30.2992,"la2":30.254,"lo1":-89.0895,"lo2":-89.0443,"dy":0.0025,"dx":0.0025,"nx":19,"ny":19,"refTime":"2026-04-08T21:00:00:Z","depth":0,"parameterNumber":3,"parameterNumberName":"V-component_of_WINDS"},"data":[0,0,0,2.7269,2.7269,2.7268,2.7268,2.7243,2.7242,0,0,0,0,0,0,0,0,0,0,0,2.7258,2.7257,2.7269,2.7269,2.7268,2.7268,2.7243,2.7242,0,0,0,0,0,0,0,0,0,0,0,2.7258,2.7257,2.7256,2.7269,2.7268,2.7268,2.7243,2.7251,0,0,0,0,0,0,0,0,0,0,2.7256,2.7234,2.7257,2.7256,2.7269,2.7268,2.7268,2.7252,2.7251,2.7234,0,2.7218,0,2.723,2.7239,2.7239,0,0,0,2.7277,2.7235,2.7247,2.7256,2.7269,2.7268,2.7271,2.7252,2.725,2.7232,2.7218,2.7217,2.723,2.7239,2.7239,2.7121,2.712,0,0,2.7277,2.725,2.7247,2.7245,2.7247,2.7271,2.7271,2.7251,2.7233,2.7218,2.7217,2.7229,2.7239,2.7238,2.7122,2.7121,0,0,0,2.7272,2.7249,2.7262,2.7245,2.7247,2.727,2.727,2.7233,2.724,2.7217,2.7229,2.7239,2.7238,2.7123,2.7121,2.7049,0,0,0,2.7272,2.7247,2.7261,2.7245,2.7247,2.7241,2.7253,2.7241,2.724,2.7229,2.7239,2.7238,2.7124,2.7122,2.7054,2.7017,0,0,0,2.7261,2.7246,2.7242,2.7243,2.7243,2.7242,2.7248,2.7242,2.7247,2.7239,2.7237,2.7125,2.7122,2.7057,2.7024,2.6977,0,0,0,2.7241,2.7176,2.724,2.7172,2.7242,2.72,2.7248,2.7217,2.7202,2.7238,2.7124,2.7122,2.7058,2.7028,2.6981,2.693,2.6908,0,0,2.7144,2.7163,2.7126,2.7183,2.7122,2.7202,2.713,2.714,2.7162,2.7133,2.713,2.7052,2.7024,2.6978,2.6799,2.6781,0,0,0,2.7085,2.7057,2.7048,2.7034,2.7044,2.7047,2.7073,2.7077,2.7054,2.7143,2.7026,2.701,2.6984,2.696,2.6945,2.6923,2.7111,2.7111,2.7111,2.6904,2.6941,2.688,2.6916,2.6903,2.6932,2.6923,2.6933,2.6971,2.6943,2.6932,2.6819,2.6791,2.678,2.6757,2.6912,2.6912,2.6911,2.6911,2.6761,2.6726,2.6783,2.6744,2.6782,2.6749,2.6774,2.6803,2.6775,2.683,2.6808,2.686,2.6759,2.674,2.6906,2.6907,2.6908,2.6908,2.6909,2.6642,2.6632,2.6642,2.6628,2.6613,2.6652,2.6624,2.666,2.6693,2.6673,2.6664,2.6665,2.6668,2.6667,2.6667,2.6667,2.6666,2.6666,2.6666,2.6513,2.6528,2.6501,2.6509,2.6506,2.6506,2.6537,2.6534,2.6539,2.6567,2.6567,2.6605,2.6745,2.6777,2.666,2.6661,2.6661,2.6662,2.6662,2.6347,2.6392,2.635,2.6348,2.636,2.6341,2.6391,2.6382,2.6385,2.6369,2.6415,2.6514,2.6535,2.6547,2.6573,2.641,2.641,2.641,2.641,2.6243,2.6261,2.6227,2.622,2.6219,2.626,2.6209,2.6234,2.6264,2.6268,2.6298,2.6338,2.635,2.6363,2.638,2.6404,2.6202,2.6202,2.6202,2.6141,2.6161,2.6111,2.6146,2.616,2.6169,2.6122,2.611,2.6155,2.6194,2.6271,2.628,2.6344,2.6364,2.6398,2.6423,2.6469,0,0]}]]